LNKFK ENHD-ENBR

Flight info

Callsign LNKFK
Flight time 0h 29m
Altitude 2000
Route VFR/35 HORGEFJORD
Aircraft DA42/L-V/N

Departure

Time 2026-04-25 22:12
Airport Haugesund Airport, Karmøy (ENHD)

Arrival

Time 2026-04-25 22:41
Airport Bergen Airport, Flesland (ENBR)
Time Latitude Longitude Altitude Speed Heading
2026-04-25 22:12 59.39070 5.23241 1287 ft 105 kts 24°
2026-04-25 22:12 59.39718 5.24001 1289 ft 110 kts 16°
2026-04-25 22:12 59.40461 5.24249 1291 ft 109 kts
2026-04-25 22:12 59.40981 5.24303 1287 ft 112 kts 360°
2026-04-25 22:13 59.42009 5.24328 1288 ft 112 kts 357°
2026-04-25 22:13 59.42785 5.24341 1292 ft 112 kts 357°
2026-04-25 22:13 59.43564 5.24353 1289 ft 112 kts 357°
2026-04-25 22:13 59.44341 5.24371 1296 ft 112 kts 358°
2026-04-25 22:14 59.45118 5.24358 1294 ft 110 kts 357°
2026-04-25 22:14 59.45873 5.24257 1296 ft 107 kts 353°
2026-04-25 22:14 59.46619 5.24134 1282 ft 110 kts 353°
2026-04-25 22:14 59.47369 5.24007 1294 ft 107 kts 354°
2026-04-25 22:15 59.48116 5.23886 1299 ft 108 kts 353°
2026-04-25 22:15 59.48871 5.23780 1297 ft 110 kts 353°
2026-04-25 22:15 59.49636 5.23691 1301 ft 110 kts 354°
2026-04-25 22:16 59.51180 5.23442 1291 ft 111 kts 353°
2026-04-25 22:16 59.51948 5.23337 1299 ft 111 kts 353°
2026-04-25 22:16 59.52707 5.23236 1302 ft 108 kts 353°
2026-04-25 22:16 59.53460 5.23107 1299 ft 109 kts 353°
2026-04-25 22:17 59.54216 5.22992 1298 ft 109 kts 353°
2026-04-25 22:17 59.54973 5.22860 1303 ft 109 kts 352°
2026-04-25 22:17 59.55732 5.22692 1298 ft 110 kts 352°
2026-04-25 22:17 59.56491 5.22511 1299 ft 110 kts 351°
2026-04-25 22:18 59.57249 5.22334 1303 ft 110 kts 351°
2026-04-25 22:18 59.58001 5.22166 1304 ft 110 kts 351°
2026-04-25 22:18 59.58762 5.21991 1305 ft 110 kts 352°
2026-04-25 22:18 59.59525 5.21806 1305 ft 111 kts 351°
2026-04-25 22:19 59.60294 5.21613 1305 ft 113 kts 352°
2026-04-25 22:19 59.61067 5.21420 1295 ft 111 kts 351°
2026-04-25 22:19 59.61789 5.21242 1495 ft 99 kts 351°
2026-04-25 22:19 59.62447 5.21076 1692 ft 92 kts 352°
2026-04-25 22:20 59.63066 5.20900 1926 ft 89 kts 352°
2026-04-25 22:20 59.63687 5.20721 2127 ft 90 kts 351°
2026-04-25 22:20 59.64293 5.20538 2324 ft 85 kts 353°
2026-04-25 22:20 59.64856 5.20359 2548 ft 84 kts 351°
2026-04-25 22:21 59.65424 5.20164 2751 ft 80 kts 351°
2026-04-25 22:21 59.65961 5.19969 2964 ft 78 kts 351°
2026-04-25 22:21 59.66505 5.19779 3098 ft 87 kts 351°
2026-04-25 22:21 59.67149 5.19570 3105 ft 99 kts 351°
2026-04-25 22:22 59.67848 5.19348 3112 ft 102 kts 351°
2026-04-25 22:22 59.68574 5.19119 3101 ft 107 kts 351°
2026-04-25 22:22 59.69311 5.18902 3109 ft 108 kts 352°
2026-04-25 22:22 59.70065 5.18682 3111 ft 111 kts 351°
2026-04-25 22:23 59.70822 5.18455 3109 ft 109 kts 351°
2026-04-25 22:23 59.71582 5.18231 3104 ft 111 kts 351°
2026-04-25 22:23 59.72350 5.18011 3103 ft 112 kts 351°
2026-04-25 22:23 59.73119 5.17793 3101 ft 111 kts 351°
2026-04-25 22:24 59.73884 5.17579 3102 ft 111 kts 351°
2026-04-25 22:24 59.74645 5.17370 3104 ft 110 kts 351°
2026-04-25 22:24 59.75403 5.17154 3101 ft 110 kts 351°
2026-04-25 22:24 59.76162 5.16934 3104 ft 110 kts 351°
2026-04-25 22:25 59.76919 5.16719 3104 ft 110 kts 351°
2026-04-25 22:25 59.77677 5.16504 3109 ft 111 kts 352°
2026-04-25 22:25 59.78444 5.16288 3110 ft 112 kts 351°
2026-04-25 22:25 59.79214 5.16070 3109 ft 111 kts 351°
2026-04-25 22:26 59.79984 5.15857 3109 ft 111 kts 351°
2026-04-25 22:26 59.80752 5.15651 3111 ft 112 kts 351°
2026-04-25 22:26 59.81528 5.15443 3105 ft 113 kts 351°
2026-04-25 22:26 59.82304 5.15233 3100 ft 113 kts 351°
2026-04-25 22:27 59.83073 5.15031 3108 ft 111 kts 352°
2026-04-25 22:27 59.83837 5.14835 3108 ft 110 kts 352°
2026-04-25 22:27 59.84585 5.14642 3106 ft 108 kts 351°
2026-04-25 22:27 59.85335 5.14450 3110 ft 109 kts 351°
2026-04-25 22:28 59.86092 5.14264 3109 ft 110 kts 351°
2026-04-25 22:28 59.86851 5.14076 3109 ft 110 kts 351°
2026-04-25 22:28 59.87611 5.13879 3109 ft 110 kts 351°
2026-04-25 22:28 59.88364 5.13679 3111 ft 111 kts 351°
2026-04-25 22:29 59.89136 5.13477 3113 ft 112 kts 351°
2026-04-25 22:29 59.89913 5.13277 3108 ft 113 kts 351°
2026-04-25 22:29 59.90686 5.13076 3110 ft 112 kts 351°
2026-04-25 22:30 59.92222 5.12678 3115 ft 113 kts 351°
2026-04-25 22:30 59.92998 5.12484 3109 ft 112 kts 351°
2026-04-25 22:30 59.93771 5.12304 3108 ft 112 kts 351°
2026-04-25 22:30 59.94282 5.12187 3109 ft 112 kts 351°
2026-04-25 22:31 59.95316 5.11980 3114 ft 112 kts 359°
2026-04-25 22:31 59.96093 5.12096 3115 ft 112 kts
2026-04-25 22:31 59.96870 5.12232 3118 ft 112 kts
2026-04-25 22:31 59.97643 5.12360 3117 ft 112 kts
2026-04-25 22:32 59.98424 5.12486 3121 ft 113 kts
2026-04-25 22:32 59.99216 5.12621 3117 ft 115 kts
2026-04-25 22:32 60.00015 5.12759 3119 ft 116 kts
2026-04-25 22:32 60.00819 5.12893 3114 ft 116 kts
2026-04-25 22:33 60.01620 5.13040 3115 ft 115 kts
2026-04-25 22:33 60.02413 5.13190 3116 ft 114 kts
2026-04-25 22:33 60.03206 5.13327 3117 ft 114 kts
2026-04-25 22:33 60.03994 5.13466 3114 ft 113 kts
2026-04-25 22:34 60.04780 5.13614 3118 ft 114 kts
2026-04-25 22:34 60.05568 5.13763 3119 ft 114 kts
2026-04-25 22:34 60.06358 5.13908 3120 ft 114 kts
2026-04-25 22:34 60.07159 5.14061 3017 ft 121 kts
2026-04-25 22:35 60.08050 5.14230 2633 ft 134 kts
2026-04-25 22:35 60.08997 5.14408 2242 ft 138 kts
2026-04-25 22:35 60.09947 5.14610 1927 ft 135 kts
2026-04-25 22:35 60.10884 5.14810 1615 ft 136 kts
2026-04-25 22:36 60.11827 5.15003 1329 ft 135 kts
2026-04-25 22:36 60.12721 5.15181 1316 ft 124 kts
2026-04-25 22:36 60.13565 5.15360 1308 ft 120 kts
2026-04-25 22:36 60.14362 5.15532 1427 ft 111 kts
2026-04-25 22:37 60.15103 5.15823 1562 ft 106 kts
2026-04-25 22:37 60.15812 5.16169 1687 ft 103 kts
2026-04-25 22:37 60.16481 5.16757 1811 ft 109 kts 20°
2026-04-25 22:37 60.17212 5.17537 1822 ft 128 kts 20°
2026-04-25 22:38 60.18046 5.18391 1822 ft 140 kts 20°
2026-04-25 22:38 60.18936 5.19297 1826 ft 146 kts 20°
2026-04-25 22:38 60.19843 5.20217 1823 ft 150 kts 20°
2026-04-25 22:38 60.20781 5.21170 1759 ft 154 kts 21°
2026-04-25 22:39 60.21768 5.22148 1601 ft 161 kts 20°
2026-04-25 22:39 60.22731 5.23098 1522 ft 138 kts 21°
2026-04-25 22:39 60.23574 5.23560 1341 ft 116 kts 349°
2026-04-25 22:39 60.24320 5.23121 1127 ft 111 kts 348°
2026-04-25 22:40 60.25080 5.23042 908 ft 111 kts 355°
2026-04-25 22:40 60.25830 5.22937 771 ft 106 kts 351°
2026-04-25 22:40 60.26551 5.22722 608 ft 105 kts 349°
2026-04-25 22:40 60.27048 5.22574 475 ft 108 kts 352°
2026-04-25 22:41 60.27714 5.22356 296 ft 87 kts 349°
2026-04-25 22:41 60.28447 5.22116 170 ft 76 kts 349°
2026-04-25 22:41 60.28787 5.21998 162 ft 69 kts 349°
2026-04-25 22:41 60.29165 5.21872 156 ft 41 kts 349°
2026-04-25 22:42 60.29367 5.21843 150 ft 16 kts 41°
2026-04-25 22:42 60.29389 5.22011 151 ft 8 kts 83°
2026-04-25 22:42 60.29392 5.22051 151 ft 1 kts 81°
2026-04-25 22:43 60.29394 5.22086 152 ft 14 kts 79°
2026-04-25 22:43 60.29438 5.22230 153 ft 12 kts
2026-04-25 22:43 60.29529 5.22210 149 ft 8 kts 26°
2026-04-25 22:43 60.29564 5.22363 145 ft 14 kts 82°
2026-04-25 22:44 60.29566 5.22527 146 ft 12 kts 46°
2026-04-25 22:44 60.29573 5.22565 146 ft 1 kts 192°
2026-04-25 22:44 60.29571 5.22562 146 ft 0 kts 222°